User: anonymous   Login
Location: Unspecified
(0.0000°N, 0.0000°E)
Time: 14:40:47
(UTC+00:00)
Language:

Courier 1B Rocket - Orbit

View from above orbital plane
View from above orbital plane
View from above satellite
View from above satellite

Ground track
Ground track

The orbit data is extracted from the following two-line orbital elements,

1 00059U 60013B   16044.16643657  .00000122  00000-0  43207-4 0  9992
2 00059  28.2500  86.3652 0189163 292.4558  65.6057 13.52934664732123
Epoch (UTC): 13 February 2016 03:59:40
Eccentricity: 0.0189163
inclination: 28.2500°
perigee height: 921 km
apogee height: 1202 km
right ascension of ascending node: 86.3652°
argument of perigee: 292.4558°
revolutions per day: 13.52934664
mean anomaly at epoch: 65.6057°
orbit number at epoch: 73212

The dashed part of the orbit path shows where the satellite is in the earth's shadow,  

DLR